| time (UTC) | temp F | wind direction | speed MPH | gust MPH | rain 1hr in | rain 24hr in | rain mn in | humidity % | barometer mb |
| 20260502230700 | 72 | 27 | 3.0 | 6.0 | 0.00 | 0.00 | 0.00 | 45 | 1019.1 |
| 20260502230200 | 72 | 80 | 2.0 | 4.0 | 0.00 | 0.00 | 0.00 | 48 | 1019.1 |
| 20260502225700 | 72 | 106 | 5.0 | 8.0 | 0.00 | 0.00 | 0.00 | 48 | 1019.1 |
| 20260502225200 | 72 | 102 | 5.0 | 9.0 | 0.00 | 0.00 | 0.00 | 48 | 1019.1 |
| 20260502224700 | 72 | 71 | 2.0 | 4.0 | 0.00 | 0.00 | 0.00 | 48 | 1019.2 |
| 20260502224200 | 72 | 353 | 2.0 | 4.0 | 0.00 | 0.00 | 0.00 | 49 | 1019.2 |
| 20260502223700 | 71 | 39 | 1.0 | 3.0 | 0.00 | 0.00 | 0.00 | 51 | 1019.2 |
| 20260502223200 | 71 | 46 | 4.0 | 5.0 | 0.00 | 0.00 | 0.00 | 49 | 1019.2 |
| 20260502222701 | 70 | 66 | 1.0 | 2.0 | 0.00 | 0.00 | 0.00 | 50 | 1019.2 |
| 20260502222200 | 70 | 52 | 4.0 | 5.0 | 0.00 | 0.00 | 0.00 | 50 | 1019.2 |
| 20260502221701 | 71 | 84 | 3.0 | 4.0 | 0.00 | 0.00 | 0.00 | 50 | 1019.2 |
| 20260502221202 | 71 | 96 | 3.0 | 4.0 | 0.00 | 0.00 | 0.00 | 51 | 1019.2 |
| 20260502220700 | 71 | 60 | 5.0 | 8.0 | 0.00 | 0.00 | 0.00 | 51 | 1019.2 |
| 20260502220200 | 71 | 49 | 6.0 | 8.0 | 0.00 | 0.00 | 0.00 | 49 | 1019.1 |
| 20260502215702 | 72 | 52 | 6.0 | 8.0 | 0.00 | 0.00 | 0.00 | 46 | 1019.2 |
| 20260502215200 | 72 | 354 | 3.0 | 6.0 | 0.00 | 0.00 | 0.00 | 46 | 1019.2 |
| 20260502214701 | 72 | 353 | 3.0 | 5.0 | 0.00 | 0.00 | 0.00 | 46 | 1019.2 |
| 20260502214200 | 72 | 5 | 6.0 | 9.0 | 0.00 | 0.00 | 0.00 | 47 | 1019.2 |
| 20260502213701 | 72 | 56 | 4.0 | 6.0 | 0.00 | 0.00 | 0.00 | 47 | 1019.2 |
| 20260502213201 | 73 | 326 | 4.0 | 11.0 | 0.00 | 0.00 | 0.00 | 46 | 1019.2 |
| 20260502212700 | 72 | 33 | 3.0 | 6.0 | 0.00 | 0.00 | 0.00 | 46 | 1019.2 |
| 20260502212200 | 72 | 338 | 2.0 | 5.0 | 0.00 | 0.00 | 0.00 | 47 | 1019.4 |
| 20260502211701 | 71 | 56 | 4.0 | 8.0 | 0.00 | 0.00 | 0.00 | 47 | 1019.3 |
| 20260502211200 | 71 | 80 | 7.0 | 11.0 | 0.00 | 0.00 | 0.00 | 47 | 1019.3 |
| 20260502210700 | 71 | 16 | 3.0 | 5.0 | 0.00 | 0.00 | 0.00 | 49 | 1019.3 |
| 20260502210200 | 71 | 313 | 2.0 | 3.0 | 0.00 | 0.00 | 0.00 | 48 | 1019.4 |
| 20260502205700 | 71 | 21 | 4.0 | 8.0 | 0.00 | 0.00 | 0.00 | 48 | 1019.5 |
| 20260502205200 | 71 | 295 | 4.0 | 7.0 | 0.00 | 0.00 | 0.00 | 49 | 1019.4 |
| 20260502204700 | 71 | 330 | 4.0 | 9.0 | 0.00 | 0.00 | 0.00 | 46 | 1019.6 |
| 20260502204200 | 71 | 25 | 2.0 | 5.0 | 0.00 | 0.00 | 0.00 | 50 | 1019.7 |
| 20260502203700 | 71 | 66 | 4.0 | 7.0 | 0.00 | 0.00 | 0.00 | 48 | 1019.7 |
| 20260502203200 | 71 | 305 | 4.0 | 8.0 | 0.00 | 0.00 | 0.00 | 47 | 1019.9 |
| 20260502202700 | 71 | 59 | 7.0 | 9.0 | 0.00 | 0.00 | 0.00 | 48 | 1019.7 |
| 20260502202200 | 71 | 86 | 5.0 | 8.0 | 0.00 | 0.00 | 0.00 | 47 | 1019.9 |
| 20260502201700 | 71 | 24 | 4.0 | 7.0 | 0.00 | 0.00 | 0.00 | 47 | 1019.9 |
| 20260502201200 | 71 | 315 | 5.0 | 9.0 | 0.00 | 0.00 | 0.00 | 47 | 1020.0 |
| 20260502200700 | 71 | 43 | 7.0 | 9.0 | 0.00 | 0.00 | 0.00 | 46 | 1020.0 |
| 20260502200200 | 71 | 9 | 5.0 | 6.0 | 0.00 | 0.00 | 0.00 | 47 | 1020.1 |
| 20260502195700 | 71 | 313 | 3.0 | 5.0 | 0.00 | 0.00 | 0.00 | 44 | 1020.3 |
| 20260502195200 | 71 | 15 | 5.0 | 8.0 | 0.00 | 0.00 | 0.00 | 46 | 1020.4 |
| 20260502194700 | 71 | 5 | 4.0 | 5.0 | 0.00 | 0.00 | 0.00 | 51 | 1020.5 |
| 20260502194200 | 71 | 313 | 3.0 | 6.0 | 0.00 | 0.00 | 0.00 | 48 | 1020.5 |
| 20260502193700 | 70 | 52 | 3.0 | 4.0 | 0.00 | 0.00 | 0.00 | 48 | 1020.5 |
| 20260502193200 | 70 | 350 | 4.0 | 5.0 | 0.00 | 0.00 | 0.00 | 49 | 1020.6 |
| 20260502192700 | 70 | 295 | 2.0 | 5.0 | 0.00 | 0.00 | 0.00 | 45 | 1020.5 |
| 20260502192201 | 70 | 334 | 4.0 | 8.0 | 0.00 | 0.00 | 0.00 | 49 | 1020.7 |
| 20260502191701 | 70 | 31 | 5.0 | 9.0 | 0.00 | 0.00 | 0.00 | 48 | 1020.6 |
| 20260502191200 | 70 | 61 | 2.0 | 4.0 | 0.00 | 0.00 | 0.00 | 48 | 1020.6 |
| 20260502190702 | 70 | 2 | 6.0 | 8.0 | 0.00 | 0.00 | 0.00 | 49 | 1020.8 |
| 20260502190200 | 70 | 23 | 2.0 | 4.0 | 0.00 | 0.00 | 0.00 | 51 | 1020.7 |
| 20260502185700 | 70 | 89 | 6.0 | 9.0 | 0.00 | 0.00 | 0.00 | 50 | 1020.8 |
| 20260502185200 | 70 | 90 | 4.0 | 6.0 | 0.00 | 0.00 | 0.00 | 50 | 1020.9 |
| 20260502184700 | 69 | 198 | 2.0 | 13.0 | 0.00 | 0.00 | 0.00 | 52 | 1020.9 |
| 20260502184200 | 69 | 78 | 5.0 | 12.0 | 0.00 | 0.00 | 0.00 | 51 | 1021.0 |
| 20260502183700 | 69 | 81 | 8.0 | 11.0 | 0.00 | 0.00 | 0.00 | 51 | 1021.0 |
| 20260502183200 | 69 | 249 | 4.0 | 7.0 | 0.00 | 0.00 | 0.00 | 53 | 1021.1 |
| 20260502182701 | 69 | 298 | 3.0 | 4.0 | 0.00 | 0.00 | 0.00 | 53 | 1021.3 |
| 20260502182200 | 69 | 353 | 4.0 | 6.0 | 0.00 | 0.00 | 0.00 | 52 | 1021.3 |
| 20260502181700 | 68 | 55 | 3.0 | 5.0 | 0.00 | 0.00 | 0.00 | 54 | 1021.4 |
| 20260502181200 | 68 | 19 | 3.0 | 6.0 | 0.00 | 0.00 | 0.00 | 54 | 1021.5 |
| 20260502180701 | 68 | 304 | 2.0 | 5.0 | 0.00 | 0.00 | 0.00 | 55 | 1021.5 |
| 20260502180200 | 68 | 306 | 6.0 | 8.0 | 0.00 | 0.00 | 0.00 | 53 | 1021.6 |
| 20260502170201 | 66 | 91 | 4.0 | 7.0 | 0.00 | 0.00 | 0.00 | 55 | 1021.9 |
| 20260502164200 | 66 | 69 | 7.0 | 9.0 | 0.00 | 0.00 | 0.00 | 58 | 1021.8 |
| 20260502163700 | 66 | 103 | 5.0 | 8.0 | 0.00 | 0.00 | 0.00 | 59 | 1021.9 |
| 20260502163200 | 65 | 61 | 4.0 | 7.0 | 0.00 | 0.00 | 0.00 | 64 | 1021.8 |
| 20260502162701 | 65 | 27 | 2.0 | 4.0 | 0.00 | 0.00 | 0.00 | 60 | 1021.8 |
| 20260502162200 | 65 | 72 | 4.0 | 6.0 | 0.00 | 0.00 | 0.00 | 63 | 1021.9 |
| 20260502161700 | 65 | 29 | 2.0 | 6.0 | 0.00 | 0.00 | 0.00 | 65 | 1021.8 |
| 20260502161200 | 64 | 46 | 5.0 | 7.0 | 0.00 | 0.00 | 0.00 | 64 | 1021.8 |
| 20260502160700 | 64 | 27 | 1.0 | 3.0 | 0.00 | 0.00 | 0.00 | 64 | 1022.0 |
| 20260502160200 | 64 | 73 | 4.0 | 6.0 | 0.00 | 0.00 | 0.00 | 66 | 1022.0 |
| 20260502152201 | 62 | 358 | 3.0 | 4.0 | 0.00 | 0.00 | 0.00 | 71 | 1021.9 |
| 20260502151700 | 62 | 55 | 3.0 | 5.0 | 0.00 | 0.00 | 0.00 | 73 | 1021.8 |
| 20260502151202 | 62 | 39 | 4.0 | 6.0 | 0.00 | 0.00 | 0.00 | 72 | 1021.8 |
| 20260502150700 | 62 | 33 | 4.0 | 9.0 | 0.00 | 0.00 | 0.00 | 74 | 1021.8 |
| 20260502150200 | 62 | 5 | 2.0 | 6.0 | 0.00 | 0.00 | 0.00 | 72 | 1021.8 |
| 20260502130700 | 55 | 277 | 1.0 | 3.0 | 0.00 | 0.00 | 0.00 | 95 | 1020.3 |
| 20260502130201 | 55 | 31 | 0.0 | 1.0 | 0.00 | 0.00 | 0.00 | 95 | 1020.1 |
| 20260502123701 | 53 | 314 | 0.0 | 1.0 | 0.00 | 0.00 | 0.00 | 96 | 1019.5 |
| 20260502123200 | 53 | 343 | 1.0 | 2.0 | 0.00 | 0.00 | 0.00 | 96 | 1019.4 |
| 20260502122701 | 53 | 314 | 1.0 | 1.0 | 0.00 | 0.00 | 0.00 | 96 | 1019.3 |
| 20260502122200 | 52 | 255 | 0.0 | 0.0 | 0.00 | 0.00 | 0.00 | 96 | 1019.2 |
| 20260502121700 | 52 | 0 | 0.0 | 0.0 | 0.00 | 0.00 | 0.00 | 96 | 1019.1 |
| 20260502121200 | 52 | 0 | 0.0 | 0.0 | 0.00 | 0.00 | 0.00 | 96 | 1019.0 |
| 20260502120700 | 52 | 208 | 0.0 | 1.0 | 0.00 | 0.00 | 0.00 | 96 | 1018.9 |
| 20260502120200 | 52 | 76 | 0.0 | 0.0 | 0.00 | 0.00 | 0.00 | 96 | 1018.8 |
| 20260502115700 | 52 | 136 | 1.0 | 3.0 | 0.00 | 0.00 | 0.00 | 96 | 1018.8 |
| 20260502115200 | 52 | 0 | 0.0 | 0.0 | 0.00 | 0.00 | 0.00 | 96 | 1018.7 |
| 20260502114700 | 52 | 330 | 0.0 | 0.0 | 0.00 | 0.00 | 0.00 | 96 | 1018.6 |
| 20260502114200 | 52 | 278 | 0.0 | 0.0 | 0.00 | 0.00 | 0.00 | 96 | 1018.6 |
| 20260502113700 | 52 | 266 | 0.0 | 1.0 | 0.00 | 0.00 | 0.00 | 96 | 1018.5 |
| 20260502113200 | 52 | 126 | 0.0 | 0.0 | 0.00 | 0.00 | 0.00 | 96 | 1018.4 |
| 20260502112702 | 52 | 83 | 0.0 | 0.0 | 0.00 | 0.00 | 0.00 | 96 | 1018.4 |
| 20260502112200 | 52 | 307 | 1.0 | 1.0 | 0.00 | 0.00 | 0.00 | 96 | 1018.4 |
| 20260502111700 | 52 | 85 | 1.0 | 2.0 | 0.00 | 0.00 | 0.00 | 96 | 1018.3 |
| 20260502111200 | 52 | 138 | 1.0 | 1.0 | 0.00 | 0.00 | 0.00 | 96 | 1018.3 |
| 20260502110700 | 52 | 300 | 1.0 | 3.0 | 0.00 | 0.00 | 0.00 | 96 | 1018.2 |
| 20260502110200 | 52 | 0 | 0.0 | 0.0 | 0.00 | 0.00 | 0.00 | 96 | 1018.1 |
| 20260502105700 | 52 | 0 | 0.0 | 0.0 | 0.00 | 0.00 | 0.00 | 96 | 1017.9 |
| 20260502105200 | 52 | 208 | 0.0 | 0.0 | 0.00 | 0.00 | 0.00 | 96 | 1017.9 |
| 20260502104700 | 52 | 0 | 0.0 | 0.0 | 0.00 | 0.00 | 0.00 | 96 | 1017.9 |
| 20260502104202 | 52 | 287 | 0.0 | 0.0 | 0.00 | 0.00 | 0.00 | 95 | 1017.8 |
| 20260502103700 | 52 | 117 | 0.0 | 1.0 | 0.00 | 0.00 | 0.00 | 96 | 1017.7 |
| 20260502103201 | 52 | 315 | 1.0 | 2.0 | 0.00 | 0.00 | 0.00 | 96 | 1017.6 |
| 20260502102700 | 52 | 279 | 1.0 | 2.0 | 0.00 | 0.00 | 0.00 | 96 | 1017.6 |
| 20260502102200 | 51 | 347 | 1.0 | 2.0 | 0.00 | 0.00 | 0.00 | 96 | 1017.6 |
| 20260502101700 | 51 | 275 | 2.0 | 2.0 | 0.00 | 0.00 | 0.00 | 96 | 1017.5 |
| 20260502101200 | 51 | 266 | 0.0 | 0.0 | 0.00 | 0.00 | 0.00 | 95 | 1017.5 |
| 20260502100701 | 51 | 251 | 0.0 | 1.0 | 0.00 | 0.00 | 0.00 | 95 | 1017.4 |
| 20260502100200 | 51 | 233 | 0.0 | 1.0 | 0.00 | 0.00 | 0.00 | 96 | 1017.3 |
| 20260502091200 | 52 | 217 | 0.0 | 1.0 | 0.00 | 0.00 | 0.00 | 95 | 1017.3 |
| 20260502090700 | 52 | 0 | 0.0 | 0.0 | 0.00 | 0.00 | 0.00 | 95 | 1017.4 |
| 20260502090200 | 53 | 234 | 0.0 | 1.0 | 0.00 | 0.00 | 0.00 | 95 | 1017.4 |
| 20260502071200 | 54 | 350 | 1.0 | 2.0 | 0.00 | 0.00 | 0.00 | 95 | 1017.4 |
| 20260502070700 | 54 | 359 | 1.0 | 2.0 | 0.00 | 0.00 | 0.00 | 95 | 1017.3 |
| 20260502070201 | 54 | 324 | 1.0 | 2.0 | 0.00 | 0.00 | 0.00 | 95 | 1017.3 |
| 20260502065700 | 54 | 25 | 1.0 | 2.0 | 0.00 | 0.00 | 0.00 | 95 | 1017.2 |
| 20260502065200 | 54 | 5 | 1.0 | 2.0 | 0.00 | 0.00 | 0.00 | 95 | 1017.2 |
| 20260502064700 | 54 | 300 | 1.0 | 2.0 | 0.00 | 0.00 | 0.00 | 95 | 1017.2 |
| 20260502064200 | 54 | 64 | 2.0 | 2.0 | 0.00 | 0.00 | 0.00 | 95 | 1017.2 |
| 20260502063700 | 54 | 347 | 1.0 | 2.0 | 0.00 | 0.00 | 0.00 | 95 | 1017.3 |
| 20260502063200 | 54 | 326 | 0.0 | 0.0 | 0.00 | 0.00 | 0.00 | 95 | 1017.2 |
| 20260502062700 | 54 | 335 | 0.0 | 1.0 | 0.00 | 0.00 | 0.00 | 95 | 1017.1 |
| 20260502062200 | 54 | 0 | 0.0 | 1.0 | 0.00 | 0.00 | 0.00 | 95 | 1017.1 |
| 20260502061200 | 54 | 58 | 2.0 | 2.0 | 0.00 | 0.00 | 0.00 | 95 | 1017.1 |
| 20260502060700 | 54 | 5 | 1.0 | 2.0 | 0.00 | 0.00 | 0.00 | 95 | 1017.1 |
| 20260502060200 | 54 | 310 | 2.0 | 3.0 | 0.00 | 0.00 | 0.00 | 95 | 1017.1 |
| 20260502055700 | 54 | 57 | 2.0 | 3.0 | 0.00 | 0.00 | 0.00 | 95 | 1017.2 |
| 20260502055200 | 54 | 317 | 1.0 | 2.0 | 0.00 | 0.00 | 0.00 | 95 | 1017.2 |
| 20260502054701 | 54 | 354 | 1.0 | 1.0 | 0.00 | 0.00 | 0.00 | 95 | 1017.1 |
| 20260502054200 | 54 | 336 | 1.0 | 2.0 | 0.00 | 0.00 | 0.00 | 95 | 1017.1 |
| 20260502053701 | 54 | 344 | 2.0 | 3.0 | 0.00 | 0.00 | 0.00 | 95 | 1017.1 |
| 20260502053201 | 54 | 300 | 1.0 | 2.0 | 0.00 | 0.00 | 0.00 | 95 | 1017.2 |
| 20260502052701 | 54 | 339 | 2.0 | 2.0 | 0.00 | 0.00 | 0.00 | 95 | 1017.1 |
| 20260502052200 | 54 | 70 | 2.0 | 2.0 | 0.00 | 0.00 | 0.00 | 95 | 1017.0 |
| 20260502051700 | 54 | 108 | 1.0 | 1.0 | 0.00 | 0.00 | 0.00 | 95 | 1017.0 |
| 20260502051200 | 54 | 92 | 2.0 | 3.0 | 0.00 | 0.00 | 0.00 | 95 | 1017.0 |
| 20260502050702 | 54 | 352 | 1.0 | 2.0 | 0.00 | 0.00 | 0.00 | 95 | 1017.0 |
| 20260502050200 | 54 | 1 | 1.0 | 1.0 | 0.00 | 0.00 | 0.00 | 95 | 1017.1 |
| 20260502045700 | 54 | 31 | 1.0 | 1.0 | 0.00 | 0.00 | 0.98 | 95 | 1017.1 |
| 20260502045201 | 54 | 337 | 1.0 | 2.0 | 0.00 | 0.00 | 0.98 | 95 | 1017.1 |
| 20260502044701 | 54 | 352 | 1.0 | 1.0 | 0.00 | 0.00 | 0.98 | 95 | 1017.0 |
| 20260502044200 | 54 | 348 | 2.0 | 2.0 | 0.00 | 0.00 | 0.98 | 95 | 1017.1 |
| 20260502043700 | 54 | 352 | 1.0 | 2.0 | 0.00 | 0.00 | 0.98 | 95 | 1017.2 |
| 20260502043200 | 54 | 319 | 2.0 | 4.0 | 0.00 | 0.00 | 0.98 | 95 | 1017.3 |
| 20260502042700 | 54 | 306 | 0.0 | 0.0 | 0.00 | 0.00 | 0.98 | 95 | 1017.3 |
| 20260502042200 | 54 | 282 | 2.0 | 2.0 | 0.00 | 0.00 | 0.98 | 95 | 1017.3 |
| 20260502041700 | 54 | 48 | 1.0 | 1.0 | 0.00 | 0.00 | 0.98 | 95 | 1017.2 |
| 20260502041200 | 54 | 346 | 1.0 | 2.0 | 0.00 | 0.00 | 0.98 | 95 | 1017.1 |
| 20260502040700 | 54 | 341 | 0.0 | 0.0 | 0.00 | 0.00 | 0.98 | 95 | 1017.2 |
| 20260502040200 | 54 | 192 | 0.0 | 1.0 | 0.00 | 0.00 | 0.98 | 95 | 1017.3 |
| 20260502035700 | 54 | 307 | 0.0 | 1.0 | 0.00 | 0.00 | 0.98 | 95 | 1017.3 |
| 20260502035200 | 54 | 116 | 1.0 | 1.0 | 0.00 | 0.00 | 0.98 | 95 | 1016.9 |
| 20260502034700 | 54 | 245 | 1.0 | 1.0 | 0.00 | 0.00 | 0.98 | 95 | 1017.1 |
| 20260502034200 | 54 | 89 | 1.0 | 2.0 | 0.01 | 0.00 | 0.98 | 95 | 1017.1 |
| 20260502033700 | 54 | 59 | 2.0 | 2.0 | 0.01 | 0.00 | 0.98 | 95 | 1017.1 |
| 20260502033200 | 54 | 79 | 2.0 | 2.0 | 0.01 | 0.00 | 0.98 | 95 | 1017.4 |
| 20260502032700 | 54 | 53 | 1.0 | 1.0 | 0.01 | 0.00 | 0.98 | 94 | 1017.6 |
| 20260502032203 | 54 | 146 | 1.0 | 2.0 | 0.01 | 0.00 | 0.98 | 94 | 1017.7 |
| 20260502031700 | 54 | 93 | 0.0 | 1.0 | 0.01 | 0.00 | 0.98 | 94 | 1017.7 |
| 20260502031200 | 54 | 73 | 2.0 | 2.0 | 0.01 | 0.00 | 0.98 | 94 | 1017.7 |
| 20260502030700 | 54 | 331 | 0.0 | 0.0 | 0.01 | 0.00 | 0.98 | 94 | 1017.5 |
| 20260502030200 | 53 | 331 | 1.0 | 2.0 | 0.01 | 0.00 | 0.98 | 94 | 1017.1 |
| 20260502025700 | 53 | 346 | 0.0 | 1.0 | 0.01 | 0.00 | 0.98 | 94 | 1017.2 |
| 20260502025200 | 53 | 308 | 1.0 | 1.0 | 0.00 | 0.00 | 0.98 | 94 | 1017.0 |
| 20260502024700 | 53 | 2 | 2.0 | 2.0 | 0.00 | 0.00 | 0.98 | 94 | 1016.7 |
| 20260502024200 | 53 | 133 | 1.0 | 2.0 | 0.01 | 0.00 | 0.98 | 94 | 1016.7 |
| 20260502023700 | 53 | 342 | 2.0 | 2.0 | 0.03 | 0.00 | 0.97 | 94 | 1016.9 |
| 20260502023200 | 53 | 328 | 2.0 | 2.0 | 0.03 | 0.00 | 0.97 | 94 | 1017.0 |
| 20260502022700 | 53 | 42 | 2.0 | 3.0 | 0.03 | 0.00 | 0.97 | 94 | 1017.0 |
| 20260502022200 | 53 | 332 | 0.0 | 0.0 | 0.04 | 0.00 | 0.97 | 94 | 1017.0 |
| 20260502021701 | 53 | 11 | 1.0 | 1.0 | 0.04 | 0.00 | 0.97 | 94 | 1016.9 |
| 20260502021200 | 53 | 33 | 1.0 | 1.0 | 0.04 | 0.00 | 0.97 | 94 | 1017.2 |
| 20260502020701 | 53 | 314 | 2.0 | 2.0 | 0.04 | 0.00 | 0.97 | 94 | 1017.0 |
| 20260502020201 | 53 | 30 | 0.0 | 0.0 | 0.04 | 0.00 | 0.96 | 94 | 1017.0 |
| 20260502015700 | 53 | 187 | 2.0 | 3.0 | 0.04 | 0.00 | 0.96 | 94 | 1016.8 |
| 20260502015200 | 53 | 0 | 0.0 | 0.0 | 0.04 | 0.00 | 0.96 | 94 | 1016.7 |
| 20260502014701 | 53 | 167 | 1.0 | 2.0 | 0.03 | 0.00 | 0.96 | 94 | 1016.5 |
| 20260502014200 | 53 | 214 | 1.0 | 2.0 | 0.01 | 0.00 | 0.96 | 94 | 1016.7 |
| 20260502013704 | 53 | 276 | 2.0 | 3.0 | 0.01 | 0.00 | 0.96 | 94 | 1016.7 |
| 20260502013200 | 53 | 296 | 1.0 | 2.0 | 0.01 | 0.00 | 0.94 | 93 | 1016.5 |
| 20260502012700 | 52 | 329 | 1.0 | 1.0 | 0.02 | 0.00 | 0.94 | 93 | 1016.2 |
| 20260502012200 | 52 | 325 | 0.0 | 1.0 | 0.02 | 0.00 | 0.94 | 93 | 1015.9 |
| 20260502011700 | 52 | 104 | 2.0 | 2.0 | 0.02 | 0.00 | 0.94 | 93 | 1015.7 |
| 20260502011200 | 52 | 98 | 3.0 | 3.0 | 0.02 | 0.00 | 0.94 | 93 | 1015.5 |
| 20260502010701 | 52 | 110 | 2.0 | 2.0 | 0.02 | 0.00 | 0.94 | 93 | 1015.7 |
| 20260502010201 | 52 | 117 | 2.0 | 2.0 | 0.03 | 0.00 | 0.94 | 93 | 1015.7 |
| 20260502005700 | 52 | 65 | 1.0 | 1.0 | 0.03 | 0.00 | 0.94 | 93 | 1015.8 |
| 20260502005200 | 52 | 134 | 0.0 | 1.0 | 0.03 | 0.00 | 0.94 | 92 | 1015.5 |
| 20260502004700 | 52 | 104 | 2.0 | 4.0 | 0.03 | 0.00 | 0.94 | 92 | 1015.5 |
| 20260502004200 | 52 | 94 | 5.0 | 6.0 | 0.03 | 0.00 | 0.94 | 92 | 1015.3 |
| 20260502003700 | 52 | 87 | 4.0 | 4.0 | 0.03 | 0.00 | 0.94 | 92 | 1015.2 |
| 20260502003202 | 52 | 96 | 3.0 | 4.0 | 0.05 | 0.00 | 0.94 | 91 | 1015.4 |
| 20260502002701 | 52 | 87 | 5.0 | 9.0 | 0.05 | 0.00 | 0.93 | 91 | 1015.2 |
| 20260502002200 | 52 | 62 | 7.0 | 8.0 | 0.05 | 0.00 | 0.94 | 91 | 1015.1 |
| 20260502001701 | 52 | 79 | 5.0 | 9.0 | 0.05 | 0.00 | 0.94 | 91 | 1014.9 |
| 20260502001200 | 52 | 90 | 7.0 | 11.0 | 0.05 | 0.00 | 0.94 | 92 | 1015.0 |
| 20260502000700 | 52 | 69 | 6.0 | 9.0 | 0.04 | 0.00 | 0.93 | 91 | 1015.0 |
| 20260502000200 | 52 | 73 | 6.0 | 8.0 | 0.04 | 0.00 | 0.93 | 92 | 1015.0 |
| 20260501235700 | 52 | 74 | 7.0 | 10.0 | 0.04 | 0.00 | 0.93 | 92 | 1015.1 |
| 20260501235200 | 53 | 81 | 5.0 | 7.0 | 0.05 | 0.00 | 0.92 | 93 | 1015.1 |
| 20260501234700 | 53 | 73 | 5.0 | 8.0 | 0.05 | 0.00 | 0.92 | 93 | 1014.8 |
| 20260501234159 | 53 | 81 | 6.0 | 8.0 | 0.05 | 0.00 | 0.92 | 93 | 1014.8 |
| 20260501233700 | 53 | 110 | 3.0 | 4.0 | 0.06 | 0.00 | 0.91 | 93 | 1015.0 |
| 20260501233200 | 53 | 90 | 5.0 | 6.0 | 0.06 | 0.00 | 0.91 | 93 | 1015.1 |
| 20260501232700 | 53 | 89 | 4.0 | 6.0 | 0.06 | 0.00 | 0.91 | 93 | 1015.0 |
| 20260501232203 | 53 | 92 | 4.0 | 4.0 | 0.07 | 0.00 | 0.91 | 93 | 1015.3 |
| 20260501231700 | 52 | 95 | 5.0 | 9.0 | 0.08 | 0.00 | 0.90 | 92 | 1015.6 |
| 20260501231200 | 52 | 70 | 6.0 | 8.0 | 0.08 | 0.00 | 0.90 | 92 | 1015.5 |